[Date Prev][Date Next][Thread Prev][Thread Next] - [Date Index][Thread Index][Author Index]
2 Line ISS Keps 2-4
- Subject: [sarex] 2 Line ISS Keps 2-4
- From: "Dave Larsen PhD" <doc@xxxxxxxxxxx>
- Date: Mon, 4 Feb 2002 03:11:26 -0800
ISS
1 25544U 98067A 02035.20450696 .00077449 00000-0 94013-3 0 354
2 25544 51.6404 1.4777 0006443 33.9909 106.8019 15.59886980183284
----
Via the sarex mailing list at AMSAT.ORG courtesy of AMSAT-NA.
To unsubscribe, send "unsubscribe sarex" to Majordomo@amsat.org
AMSAT Home